TimeEDT,TemperatureF,Dew PointF,Humidity,Sea Level PressureIn,VisibilityMPH,Wind Direction,Wind SpeedMPH,Gust SpeedMPH,PrecipitationIn,Events,Conditions,WindDirDegrees,DateUTC
12:54 AM,33.1,30.9,92,30.04,7.0,Calm,Calm,-,N/A,,Clear,0,2013-05-15 04:54:00
1:54 AM,30.9,28.9,92,30.04,9.0,Calm,Calm,-,N/A,,Clear,0,2013-05-15 05:54:00
2:54 AM,30.9,28.9,92,30.03,7.0,Calm,Calm,-,N/A,,Clear,0,2013-05-15 06:54:00
3:38 AM,30.2,28.4,93,30.03,1.0,Calm,Calm,-,N/A,,Clear,0,2013-05-15 07:38:00
3:46 AM,30.2,28.4,93,30.03,3.0,Calm,Calm,-,N/A,,Clear,0,2013-05-15 07:46:00
3:54 AM,30.0,28.0,92,30.03,2.5,Calm,Calm,-,N/A,,Clear,0,2013-05-15 07:54:00
4:03 AM,30.2,28.4,93,30.02,5.0,Calm,Calm,-,N/A,,Clear,0,2013-05-15 08:03:00
4:54 AM,30.0,28.0,92,30.02,5.0,Calm,Calm,-,N/A,,Clear,0,2013-05-15 08:54:00
5:54 AM,30.0,28.0,92,30.01,5.0,Calm,Calm,-,N/A,,Clear,0,2013-05-15 09:54:00
6:54 AM,35.1,32.0,89,30.01,10.0,Calm,Calm,-,N/A,,Scattered Clouds,0,2013-05-15 10:54:00
7:54 AM,39.9,32.0,73,29.97,10.0,Calm,Calm,-,N/A,,Partly Cloudy,0,2013-05-15 11:54:00
8:54 AM,48.9,32.0,52,29.96,10.0,Calm,Calm,-,N/A,,Partly Cloudy,0,2013-05-15 12:54:00
9:54 AM,54.0,32.0,43,29.93,10.0,SSW,10.4,-,N/A,,Mostly Cloudy,200,2013-05-15 13:54:00
10:54 AM,55.0,32.0,42,29.92,10.0,South,11.5,18.4,N/A,,Scattered Clouds,190,2013-05-15 14:54:00
11:54 AM,55.9,35.1,45,29.90,10.0,South,15.0,25.3,N/A,,Overcast,180,2013-05-15 15:54:00
12:54 PM,52.0,41.0,66,29.84,10.0,SSE,9.2,-,0.00,,Overcast,150,2013-05-15 16:54:00
1:54 PM,53.1,42.1,66,29.86,8.0,SW,9.2,-,0.01,Rain,Light Rain,220,2013-05-15 17:54:00
2:54 PM,51.1,45.0,80,29.80,8.0,SSE,8.1,-,0.03,Rain,Light Rain,150,2013-05-15 18:54:00
3:54 PM,53.1,46.9,80,29.70,10.0,SE,15.0,32.2,0.01,,Mostly Cloudy,130,2013-05-15 19:54:00
4:54 PM,55.0,48.0,77,29.69,10.0,Variable,4.6,21.9,N/A,,Overcast,0,2013-05-15 20:54:00
5:11 PM,55.4,48.2,77,29.70,10.0,SW,8.1,-,N/A,,Overcast,220,2013-05-15 21:11:00
5:23 PM,57.2,48.2,72,29.69,10.0,Variable,6.9,-,N/A,,Mostly Cloudy,0,2013-05-15 21:23:00
5:54 PM,59.0,48.9,69,29.67,10.0,South,5.8,-,N/A,,Clear,180,2013-05-15 21:54:00
6:54 PM,59.0,48.9,69,29.65,10.0,South,5.8,16.1,N/A,,Partly Cloudy,180,2013-05-15 22:54:00
7:54 PM,59.0,48.9,69,29.63,10.0,Variable,5.8,-,N/A,,Partly Cloudy,0,2013-05-15 23:54:00
8:54 PM,57.9,48.9,72,29.62,8.0,Variable,4.6,-,0.01,Rain,Light Rain,0,2013-05-16 00:54:00
9:54 PM,55.9,50.0,80,29.66,10.0,SSW,5.8,-,0.00,,Scattered Clouds,210,2013-05-16 01:54:00
10:54 PM,59.0,50.0,72,29.65,10.0,SW,8.1,-,N/A,,Partly Cloudy,220,2013-05-16 02:54:00
11:54 PM,53.1,48.9,86,29.66,9.0,West,6.9,-,N/A,,Clear,260,2013-05-16 03:54:00